GALAXY 3C (G-3C)

Last updated on Fri Oct 11 2024 00:02:38 GMT+0000 (Coordinated Universal Time)

1 27445U 02030A 24284.52744924 -.00000146 00000+0 00000+0 0 9994 2 27445 2.1492 85.4958 0003394 59.1989 329.9888 1.00271427 40332
UTC large
Height (km)
Speed (km/s)
/
Latitude / Longitude
Inclination (degrees)
Orbital Period (minutes)
Azimuth
Elevation
Range (km)
Doppler Factor

Next 0 passes for location: London (51.5072 / 0.1276)

Sorry there are no passes over London.